| time (UTC) | temp C | wind direction | speed KPH | gust KPH | rain 1hr cm | rain 24hr cm | rain mn cm | humidity % | barometer mb |
| 20260904230012 | 16 | 253 | 0.0 | 0.0 | 0.00 | 0.00 | 0.00 | 87 | 1019.6 |
| 20260904224523 | 16 | 253 | 0.0 | 0.0 | 0.00 | 0.00 | 0.00 | 87 | 1019.4 |
| 20260904223053 | 16 | 254 | 0.0 | 1.6 | 0.00 | 0.00 | 0.00 | 87 | 1019.1 |
| 20260904221505 | 16 | 254 | 0.0 | 0.0 | 0.00 | 0.00 | 0.00 | 86 | 1018.7 |
| 20260904220026 | 16 | 253 | 0.0 | 0.0 | 0.00 | 0.00 | 0.00 | 86 | 1018.5 |
| 20260904214547 | 16 | 254 | 0.0 | 0.0 | 0.00 | 0.00 | 0.00 | 85 | 1018.2 |
| 20260904213101 | 17 | 254 | 0.0 | 0.0 | 0.00 | 0.00 | 0.00 | 85 | 1018.0 |
| 20260904211516 | 17 | 254 | 0.0 | 0.0 | 0.00 | 0.00 | 0.00 | 84 | 1017.9 |
| 20260904210028 | 17 | 253 | 0.0 | 0.0 | 0.00 | 0.00 | 0.00 | 83 | 1017.8 |
| 20260904204540 | 17 | 254 | 0.0 | 0.0 | 0.00 | 0.00 | 0.00 | 82 | 1017.8 |
| 20260904203103 | 18 | 253 | 0.0 | 0.0 | 0.00 | 0.00 | 0.00 | 82 | 1017.8 |
| 20260904201505 | 18 | 254 | 0.0 | 0.0 | 0.00 | 0.00 | 0.00 | 80 | 1017.5 |
| 20260904200105 | 18 | 253 | 0.0 | 0.0 | 0.00 | 0.00 | 0.00 | 80 | 1017.3 |
| 20260904194512 | 19 | 254 | 0.0 | 1.6 | 0.00 | 0.00 | 0.00 | 79 | 1017.3 |
| 20260904193024 | 20 | 254 | 0.0 | 0.0 | 0.00 | 0.00 | 0.00 | 78 | 1017.1 |
| 20260904191553 | 20 | 254 | 0.0 | 0.0 | 0.00 | 0.00 | 0.00 | 76 | 1017.0 |
| 20260904190017 | 21 | 254 | 0.0 | 0.0 | 0.00 | 0.00 | 0.00 | 74 | 1016.7 |
| 20260904184546 | 21 | 254 | 0.0 | 0.0 | 0.00 | 0.00 | 0.00 | 72 | 1016.5 |
| 20260904183016 | 22 | 253 | 0.0 | 0.0 | 0.00 | 0.00 | 0.00 | 69 | 1016.4 |
| 20260904181531 | 22 | 254 | 0.0 | 0.0 | 0.00 | 0.00 | 0.00 | 67 | 1016.1 |
| 20260904180034 | 23 | 253 | 0.0 | 0.0 | 0.00 | 0.00 | 0.00 | 65 | 1016.1 |
| 20260904174550 | 24 | 253 | 0.0 | 0.0 | 0.00 | 0.00 | 0.00 | 62 | 1015.9 |
| 20260904173052 | 25 | 254 | 0.0 | 0.0 | 0.00 | 0.00 | 0.00 | 57 | 1015.8 |
| 20260904171519 | 26 | 253 | 0.0 | 1.6 | 0.00 | 0.00 | 0.00 | 55 | 1015.7 |
| 20260904170053 | 26 | 254 | 0.0 | 0.0 | 0.00 | 0.00 | 0.00 | 52 | 1015.7 |
| 20260904164513 | 27 | 253 | 0.0 | 1.6 | 0.00 | 0.00 | 0.00 | 48 | 1015.7 |
| 20260904163027 | 29 | 254 | 0.0 | 4.8 | 0.00 | 0.00 | 0.00 | 44 | 1015.8 |
| 20260904161559 | 30 | 163 | 0.0 | 1.6 | 0.00 | 0.00 | 0.00 | 41 | 1015.7 |
| 20260904160010 | 31 | 218 | 0.0 | 1.6 | 0.00 | 0.00 | 0.00 | 38 | 1015.8 |
| 20260904154541 | 31 | 61 | 0.0 | 8.0 | 0.00 | 0.00 | 0.00 | 37 | 1016.0 |
| 20260904153100 | 32 | 44 | 0.0 | 4.8 | 0.00 | 0.00 | 0.00 | 35 | 1016.0 |
| 20260904151507 | 32 | 162 | 1.6 | 9.7 | 0.00 | 0.00 | 0.00 | 38 | 1016.2 |
| 20260904150033 | 32 | 195 | 0.0 | 8.0 | 0.00 | 0.00 | 0.00 | 38 | 1016.3 |
| 20260904144541 | 32 | 153 | 3.2 | 9.7 | 0.00 | 0.00 | 0.00 | 39 | 1016.4 |
| 20260904143058 | 32 | 285 | 0.0 | 9.7 | 0.00 | 0.00 | 0.00 | 40 | 1016.5 |
| 20260904141542 | 31 | 109 | 0.0 | 16.1 | 0.00 | 0.00 | 0.00 | 42 | 1016.6 |
| 20260904140056 | 31 | 278 | 1.6 | 11.3 | 0.00 | 0.00 | 0.00 | 41 | 1016.7 |
| 20260904134520 | 31 | 110 | 1.6 | 9.7 | 0.00 | 0.00 | 0.00 | 39 | 1016.7 |
| 20260904133057 | 31 | 106 | 0.0 | 11.3 | 0.00 | 0.00 | 0.00 | 40 | 1016.8 |
| 20260904131501 | 31 | 205 | 3.2 | 12.9 | 0.00 | 0.00 | 0.00 | 42 | 1016.9 |
| 20260904130012 | 31 | 160 | 0.0 | 4.8 | 0.00 | 0.00 | 0.00 | 40 | 1017.1 |
| 20260904124528 | 30 | 119 | 0.0 | 9.7 | 0.00 | 0.00 | 0.00 | 41 | 1017.4 |
| 20260904123101 | 30 | 70 | 1.6 | 8.0 | 0.00 | 0.00 | 0.00 | 41 | 1017.6 |
| 20260904121628 | 30 | 214 | 0.0 | 6.4 | 0.00 | 0.00 | 0.00 | 46 | 1017.8 |
| 20260904120105 | 30 | 207 | 0.0 | 9.7 | 0.00 | 0.00 | 0.00 | 45 | 1018.1 |
| 20260904114504 | 30 | 230 | 1.6 | 9.7 | 0.00 | 0.00 | 0.00 | 46 | 1018.3 |
| 20260904113030 | 30 | 51 | 0.0 | 3.2 | 0.00 | 0.00 | 0.00 | 44 | 1018.4 |
| 20260904111541 | 29 | 210 | 1.6 | 6.4 | 0.00 | 0.00 | 0.00 | 46 | 1018.7 |
| 20260904110052 | 28 | 250 | 0.0 | 6.4 | 0.00 | 0.00 | 0.00 | 44 | 1018.9 |
| 20260904104502 | 28 | 253 | 1.6 | 6.4 | 0.00 | 0.00 | 0.00 | 47 | 1019.2 |
| 20260904103019 | 28 | 359 | 0.0 | 8.0 | 0.00 | 0.00 | 0.00 | 44 | 1019.3 |
| 20260904101528 | 27 | 89 | 0.0 | 6.4 | 0.00 | 0.00 | 0.00 | 47 | 1019.3 |
| 20260904100043 | 27 | 90 | 0.0 | 8.0 | 0.00 | 0.00 | 0.00 | 47 | 1019.6 |
| 20260904094555 | 27 | 193 | 0.0 | 3.2 | 0.00 | 0.00 | 0.00 | 49 | 1019.7 |
| 20260904093008 | 27 | 159 | 0.0 | 8.0 | 0.00 | 0.00 | 0.00 | 47 | 1019.9 |
| 20260904091531 | 25 | 166 | 0.0 | 8.0 | 0.00 | 0.00 | 0.00 | 55 | 1019.9 |
| 20260904090033 | 24 | 207 | 1.6 | 9.7 | 0.00 | 0.00 | 0.00 | 55 | 1020.0 |
| 20260904084542 | 22 | 236 | 0.0 | 0.0 | 0.00 | 0.00 | 0.00 | 66 | 1019.9 |
| 20260904083043 | 20 | 236 | 0.0 | 0.0 | 0.00 | 0.00 | 0.00 | 74 | 1019.9 |
| 20260904081558 | 18 | 236 | 0.0 | 0.0 | 0.00 | 0.00 | 0.00 | 81 | 1020.1 |
| 20260904080009 | 17 | 236 | 0.0 | 0.0 | 0.00 | 0.00 | 0.00 | 83 | 1020.2 |
| 20260904074515 | 16 | 236 | 0.0 | 0.0 | 0.00 | 0.00 | 0.00 | 85 | 1020.2 |
| 20260904073035 | 15 | 236 | 0.0 | 0.0 | 0.00 | 0.00 | 0.00 | 87 | 1020.3 |
| 20260904071606 | 14 | 236 | 0.0 | 4.8 | 0.00 | 0.00 | 0.00 | 89 | 1020.3 |
| 20260904070112 | 13 | 219 | 0.0 | 3.2 | 0.00 | 0.00 | 0.00 | 90 | 1020.4 |
| 20260904064513 | 13 | 224 | 0.0 | 1.6 | 0.00 | 0.00 | 0.00 | 91 | 1020.4 |
| 20260904063052 | 12 | 236 | 0.0 | 1.6 | 0.00 | 0.00 | 0.00 | 93 | 1020.5 |
| 20260904061559 | 11 | 238 | 0.0 | 1.6 | 0.00 | 0.00 | 0.00 | 93 | 1020.4 |
| 20260904060028 | 11 | 250 | 0.0 | 0.0 | 0.00 | 0.00 | 0.00 | 92 | 1020.6 |
| 20260904054541 | 11 | 250 | 0.0 | 1.6 | 0.00 | 0.00 | 0.00 | 92 | 1020.6 |
| 20260904053103 | 11 | 250 | 0.0 | 0.0 | 0.00 | 0.00 | 0.00 | 92 | 1020.7 |
| 20260904051506 | 11 | 250 | 0.0 | 0.0 | 0.00 | 0.00 | 0.00 | 92 | 1020.7 |
| 20260904050033 | 11 | 250 | 0.0 | 0.0 | 0.00 | 0.00 | 0.00 | 92 | 1020.6 |
| 20260904044549 | 11 | 250 | 0.0 | 1.6 | 0.00 | 0.00 | 0.00 | 92 | 1020.8 |
| 20260904043106 | 11 | 250 | 0.0 | 0.0 | 0.00 | 0.00 | 0.00 | 92 | 1020.9 |
| 20260904041520 | 11 | 250 | 0.0 | 1.6 | 0.00 | 0.00 | 0.00 | 92 | 1021.0 |
| 20260904040035 | 11 | 250 | 0.0 | 0.0 | 0.00 | 0.00 | 0.00 | 92 | 1021.1 |
| 20260904034547 | 11 | 250 | 0.0 | 0.0 | 0.00 | 0.00 | 0.00 | 91 | 1021.3 |
| 20260904033104 | 11 | 250 | 0.0 | 0.0 | 0.00 | 0.00 | 0.00 | 91 | 1021.4 |
| 20260904031502 | 12 | 250 | 0.0 | 0.0 | 0.00 | 0.00 | 0.00 | 91 | 1021.4 |
| 20260904030015 | 12 | 250 | 0.0 | 0.0 | 0.00 | 0.00 | 0.00 | 91 | 1021.5 |
| 20260904024528 | 12 | 250 | 0.0 | 1.6 | 0.00 | 0.00 | 0.00 | 91 | 1021.5 |
| 20260904023048 | 12 | 250 | 0.0 | 0.0 | 0.00 | 0.00 | 0.00 | 91 | 1021.6 |
| 20260904021607 | 12 | 250 | 0.0 | 0.0 | 0.00 | 0.00 | 0.00 | 90 | 1021.7 |
| 20260904020009 | 12 | 250 | 0.0 | 1.6 | 0.00 | 0.00 | 0.00 | 91 | 1021.9 |
| 20260904014525 | 12 | 250 | 0.0 | 1.6 | 0.00 | 0.00 | 0.00 | 90 | 1022.0 |
| 20260904013039 | 12 | 250 | 0.0 | 0.0 | 0.00 | 0.00 | 0.00 | 90 | 1022.0 |
| 20260904011553 | 12 | 250 | 0.0 | 0.0 | 0.00 | 0.00 | 0.00 | 90 | 1022.1 |
| 20260904010005 | 12 | 250 | 0.0 | 1.6 | 0.00 | 0.00 | 0.00 | 90 | 1022.2 |
| 20260904004559 | 12 | 250 | 0.0 | 1.6 | 0.00 | 0.00 | 0.00 | 90 | 1022.2 |
| 20260904003006 | 12 | 250 | 0.0 | 0.0 | 0.00 | 0.00 | 0.00 | 90 | 1022.4 |
| 20260904001522 | 13 | 250 | 0.0 | 0.0 | 0.00 | 0.00 | 0.00 | 89 | 1022.5 |
| 20260904000032 | 13 | 250 | 0.0 | 0.0 | 0.00 | 0.00 | 0.00 | 89 | 1022.7 |
| 20260903234549 | 13 | 250 | 0.0 | 0.0 | 0.00 | 0.00 | 0.00 | 89 | 1022.8 |
| 20260903233056 | 13 | 250 | 0.0 | 1.6 | 0.00 | 0.00 | 0.00 | 88 | 1022.8 |
| 20260903231502 | 13 | 250 | 0.0 | 0.0 | 0.00 | 0.00 | 0.00 | 88 | 1022.9 |